Regional Weather Roundup
Issued by NWS Wakefield, VA

Home | Current Version | Previous Version | Text Only | Print | Product List | Glossary Off
Versions: 1 2 3 4 5 6 7 8 9 10 11 12 13 14 15 16 17 18 19 20 21 22 23 24 25 26 27 28 29 30 31 32 33 34 35 36 37 38 39 40 41 42 43 44 45 46 47 48 49 50

000
ASUS41 KAKQ 100915
RWRAKQ

REGIONAL WEATHER ROUNDUP
NATIONAL WEATHER SERVICE WAKEFIELD VA
400 AM EST SAT DEC 10 2016

Note: "fair" indicates few or no clouds below 12,000 feet with no
significant weather and/or obstructions to visibility. * = Denotes
station may not report precipitation (e.g., rain,snow,etc.),
thunder or fog.

VAZ042-051-052>054-056-101000-
NORTHERN VIRGINIA

CITY           SKY/WX    TMP DP  RH WIND       PRES   REMARKS
WASH NATIONAL  PTCLDY    31  16  54 W7        30.47R
DULLES         MOCLDY    28  14  55 W5        30.46S
FORT BELVOIR   NOT AVBL
QUANTICO       PTCLDY    29  17  61 NW6       30.49S
FREDERICKSBRG* PTCLDY    28  17  65 W3        30.49R
STAFFORD*      CLEAR     27  15  61 W5        30.52R
WARRENTON      PTCLDY    24  14  66 W5        30.46F
CULPEPER*      PTCLDY    29  15  55 CALM      30.48S
MANASSAS*      NOT AVBL
LEESBURG*      PTCLDY    32  19  59 W9        30.46S
WINCHESTER     PTCLDY    28  12  50 W9        30.43S
FRONT ROYAL*   FAIR      28  14  54 CALM      30.45R
LURAY*         FAIR      27  18  69 W5        30.45S
$$

VAZ048-049-060>072-079>083-101000-
CENTRAL AND SOUTH CENTRAL VIRGINIA

CITY           SKY/WX    TMP DP  RH WIND       PRES   REMARKS
RICHMOND       PTCLDY    26  13  57 W5        30.49S
CHESTERFIELD*  FAIR      21   0  39 CALM      30.50S
PETERSBURG*    CLEAR     17  16  93 CALM      30.50F
HANOVER        CLEAR     24  13  62 CALM      30.50S
TAPPAHANNOCK*  CLEAR     27  12  53 W5        30.48F
QUINTON*       FAIR      24  17  75 CALM      30.49S
CHARLOTTSVILLE CLEAR     27  11  51 CALM      30.46F
GORDONSVILLE*  FAIR      26  14  60 CALM      30.46F
ORANGE*          N/A     27  16  63 CALM      30.49R
LOUISA*        PTCLDY    25  16  68 W3        30.46S
BUMPASS*       FAIR      23  15  71 CALM      30.48S
FARMVILLE*     CLEAR     19  16  88 CALM      30.47F
CREWE*         FAIR      20  17  90 CALM      30.48F
FORT PICKETT*  FAIR      21  10  64 CALM      30.48F
CHASE CITY*    FAIR      21  14  75 CALM      30.49S
CLARKSVILLE*   FAIR      21  16  79 CALM      30.50S
SOUTH HILL*    CLEAR     18  16  90 CALM      30.55F
LAWRENCEVILLE* FAIR      21  15  78 CALM      30.50F
EMPORIA*       CLEAR     19  16  86 CALM      30.52F
$$

VAZ088>098-101000-
SOUTHEAST VIRGINIA

CITY           SKY/WX    TMP DP  RH WIND       PRES   REMARKS
NORFOLK        CLEAR     33  16  49 NW5       30.48S
VIRGINIA BEACH PTCLDY    32  17  54 NW13      30.47S WCI  22
NORFOLK NAVAL  PTCLDY    31  16  54 NW13      30.50S WCI  21
WEST POINT*    CLEAR     28  17  64 CALM      30.51S
SALUDA*        FAIR      28  17  63 W5        30.48S
NEWPORT NEWS   CLEAR     27  15  61 NW7       30.49S
LANGLEY AFB    CLEAR     29  15  54 W6        30.48S
FORT EUSTIS    CLEAR     30  17  56 NW9       30.47S
WILLIAMSBURG*  CLEAR     28  18  64 CALM      30.50S
HR EXEC AP*    FAIR      21  12  68 W3        30.49R
FRANKLIN*      CLEAR     24  17  74 NW3       30.52S
US460-WAKEFLD  PTCLDY    21  16  81 CALM      30.50S
$$

VAZ020-022-025-037-045-101000-
WEST CENTRAL AND SOUTHWEST VIRGINIA

CITY           SKY/WX    TMP DP  RH WIND       PRES   REMARKS
STAUNTON*      CLEAR     18  12  77 W5        30.46S
WAYNESBORO*    FAIR      20  10  64 SW5       30.43F
HOT SPRINGS VA MOCLDY    10   7  85 W13       30.24S WCI  -5
LYNCHBURG      CLEAR     17  12  80 CALM      30.47S
DANVILLE       PTCLDY    19  15  84 SW5       30.51S
SOUTH BOSTON*  FAIR      21  13  71 CALM      30.51S
MARTINSVILLE   CLEAR     17  11  78 CALM      30.51S
ROANOKE        CLEAR     19  11  70 NW7       30.48F
BLACKSBURG     CLEAR     18  13  80 W3        30.44S
DUBLIN*        CLEAR     17  12  79 W5        30.44R
MARION*        CLEAR     15  12  87 W9        30.42F
HILLSVILLE*    CLEAR     15  11  86 CALM      30.37S
RICHLANDS*     FAIR      16  12  85 W5        30.40F
WISE*          CLEAR     18  14  86 CALM      30.41F
ABINGDON*      CLEAR     16  13  86 CALM      30.44F
$$

MDZ021>025-VAZ099-100-101000-
SOUTHERN MARYLAND AND THE DELMARVA PENINSULA

CITY           SKY/WX    TMP DP  RH WIND       PRES   REMARKS
PATUXENT RIVER CLEAR     29  17  61 W8        30.45S
BAY BRIDGE APT CLEAR     30  19  64 MISG      30.44S
LEONARDTOWN    PTCLDY    28  18  64 W6        30.47R
DOVER          PTCLDY    28  19  70 W7        30.41S
GEORGETOWN     CLEAR     29  19  66 W6        30.43S
EASTON         PTCLDY    32  18  56 NW8       30.48R
CAMBRIDGE      PTCLDY    32  19  59 NW8       30.44R
SALISBURY      CLEAR     28  19  69 W6        30.44R
OCEAN CITY     CLEAR     28  18  66 NW6       30.44R
WALLOPS ISLAND CLEAR     28  20  71 W6        30.46R
ACCOMACK*      PTCLDY    32  20  61 NW13G18   30.46S WCI  23
$$

NCZ012>017-030>032-101000-
NORTH CENTRAL AND EASTERN NORTH CAROLINA

CITY           SKY/WX    TMP DP  RH WIND       PRES   REMARKS
ROANOKE RAPIDS FAIR      23  19  86 CALM      30.52S
RALEIGH        CLEAR     23  14  68 CALM      30.51F
ELIZABETH CITY CLEAR     24  18  77 W8        30.50S
AHOSKIE*         N/A     24  16  71 CALM      30.52S
EDENTON*       NOT AVBL
CURRITUCK*     CLEAR     29  20  69 W3        30.49S
KILL DEVIL HLS CLEAR     34  23  65 NW7       30.45S
MANTEO         CLEAR     34  25  70 N9        30.47S
CAPE HATTERAS  CLEAR     37  20  50 VRB7      30.46S
TARBORO*       NOT AVBL
GOLDSBORO      CLEAR     27  16  63 CALM      30.50S
WASHINGTON     PTCLDY    26  18  71 NW3       30.51S
GREENVILLE     CLEAR     28  19  69 CALM      30.51S
NEW BERN       PTCLDY    29  19  66 N7        30.51S
WILMINGTON     CLEAR     28  19  69 N7        30.51R
$$

VAZ048-101000-
ELSEWHERE

CITY           SKY/WX    TMP DP  RH WIND       PRES   REMARKS
HARRISBURG PA  PTCLDY    29  19  66 W15       30.39S WCI  18
BALTIMORE      MOCLDY    28  17  63 W6        30.44R
ANNAPOLIS      PTCLDY    31  18  58 W6        30.44S
ANDREWS AFB    PTCLDY    29  15  55 W8        30.44S
PHILADELPHIA   PTCLDY    28  18  66 W8        30.40S
HENDERSON NC   CLEAR     22  11  63 CALM      30.50F
GREENSBORO     PTCLDY    23  13  65 NE5       30.47F
ROCKY MOUNT    CLEAR     25  17  72 NW3       30.52S
$$

VAZ100-101000-
MARINE

STATION/POSITION TIME  TEMP    WIND        PRES    WAVE   SWELL
                       AIR SEA DIR/SP/G            HT/PER HT/PER
                 (UTC) (F)     (DEG/KT/KT) (MB)    (FT/S) (FT/S)
BRANDYWINE LGT   0836   32     320/ 18/ 25   N/A
CAPE MAY NJ      0836   33 41  310/ 12/ 21 1029.1S
LEWES DE         0836   30 43  280/ 10/ 12 1030.1S
OCEAN-CITY-INLET 0842   30 48  320/  8/ 12 1030.7F
WACHAPREAGUE VA  0842   31 42  280/  1/  3 1031.3S
THOMAS POINT MD  0900   31 44  290/ 18/ 20   N/A
GOOSES REEF MD   0900   34 48  290/ 16/ 19 1031.6    2/ 3
COVE POINT MD    0842   31     320/ 10/ 17 1031.6F
SOLOMONS ISLAND  0842   32 48  290/  9/ 13   N/A
BISHOPS HEAD MD  0842   32 36  320/ 11/ 14 1031.4R
PINEY POINT MD   0848          330/ 20/ 23   N/A
POTOMAC MD       0900   35 48  320/ 19/ 25 1031.1    2/ 3
CAMBRIDGE MD     0842   33 43  300/ 15/ 20 1030.4R
LEWISETTA VA     0842   30 43  290/  9/ 10 1031.5R
RAPPAHANNOCK LGT 0848          310/ 20/ 23 1032.0S
STINGRAY PT      0900   34     320/ 14/ 17 1032.4    2/ 3
YORK RVR RNG VA  0842   32     320/ 14/ 16 1031.8S
YORKTOWN VA      0842   32 48  280/  9/ 11 1032.0S
JAMESTOWN VA     0900   31 48  310/ 12/ 14   N/A
DOMINION TERM VA 0842   34     340/  3/  8 1032.3S
KIPTOPEKE VA     0842      48  330/ 18/ 22   N/A
CHES BAY BRIDGE  0842   35 49  330/ 18/ 22 1031.9S
CAPE HENRY VA    0842   35     340/ 17/ 21   N/A
WILLOUBY STN VA  0842   33     320/ 14/ 16 1033.0S
S CRANEY ISL VA  0842   33     320/  8/ 12 1032.1R
CAPE HENRY BUOY  0842      53                N/A     4/ 4
1ST LANDING BUOY 0900   35 49              1031.8    3/ 4
CAPE CHARLES BUO 0856      52                N/A     3/ 4
OFFSHORE WE BUOY 0851      54                N/A     4/ 5
64NM E OF VA BCH 0850   40 58  330/ 17/ 21 1030.0R   5/ 6
DUCK PIER NC     0842   36 52  330/ 17/ 20 1030.8F
44100 DUCK FRF   0835      55                N/A     5/ 6
OREGON INLET NC  0842   35 50  320/ 11/ 14 1031.4S
HATTERAS NC      0842   39 52  340/ 16/ 18 1031.1R
DIAMOND SHLS NC  0850   42 77  340/ 14/ 19 1031.1R   5/ 9   3/ 9
CAPE LOOKOUT NC  0800   37     330/ 15/ 18 1031.8R
$$



USA.gov is the U.S. government's official web portal to all federal, state and local government web resources and services.